Regional Weather Roundup
Issued by NWS

Home | Current Version | Previous Version | Text Only | Print | Product List | Glossary Off
Versions: 1 2 3 4 5 6 7 8 9 10 11 12 13 14 15 16 17 18 19 20 21 22 23 24 25 26 27 28 29 30 31 32 33 34 35 36 37 38 39 40 41 42 43 44 45 46 47 48 49 50

707
ASUS45 KSLC 171110
RWRUT

UTAH REGIONAL WEATHER ROUNDUP
NATIONAL WEATHER SERVICE SALT LAKE CITY UT
500 AM MDT THU AUG 17 2017

UTZ001>011-023>025-171200-

NORTHERN UTAH

CITY           SKY/WX    TMP DP  RH WIND       PRES   REMARKS
BRIGHAM CITY   CLEAR     59  47  64 CALM      30.09R
HILL AFB       CLEAR     64  37  37 E17       30.10S
LOGAN          CLEAR     54  46  74 CALM      30.09R
OGDEN          CLEAR     64  38  38 S10       30.07S
SALT LAKE CITY PTCLDY    70  41  34 SE10      30.06S
TOOELE VALLEY  CLEAR     59  37  44 SW6       30.08S
WENDOVER       CLEAR     66  41  40 CALM      30.07R
HEBER CITY     CLEAR     46  41  81 CALM      30.20R
WEST JORDAN    CLEAR     63  45  51 S3        30.10S

$$

UTZ011>015-024>027-171200-

CENTRAL/NORTHEAST UTAH

CITY           SKY/WX    TMP DP  RH WIND       PRES   REMARKS
PROVO AIRPORT  CLEAR     56  45  66 E3        30.12R
MOAB/CANYONLAN PTCLDY    64  30  27 NW6       30.08R
DELTA          CLEAR     55  41  58 E5        30.12S
PRICE          CLOUDY    62  41  46 E5        30.18S
ROOSEVELT      CLEAR     52  45  76 W6        30.17S
VERNAL         CLOUDY    55  44  66 W3        30.16S

$$

UTZ013>016-019>022-027-171200-

SOUTHERN UTAH

CITY           SKY/WX    TMP DP  RH WIND       PRES   REMARKS
BRYCE CANYON   CLEAR     43  36  76 W8        30.33S
CEDAR CITY     PTCLDY    60  39  45 NE8       30.18R
MILFORD        CLEAR     57  40  52 S8        30.15R
ST GEORGE      SUNNY     72  40  31 SE5       30.01R
HANKSVILLE     PTCLDY    57  32  38 E5        30.12R
BLANDING       CLEAR     56  32  40 CALM      30.25S

$$

REGIONAL REPORTS     COLORADO/ARIZONA

CITY           SKY/WX    TMP DP  RH WIND       PRES   REMARKS
CRAIG, CO      CLOUDY    49  43  80 CALM      30.23S
GRAND JUNCTION PTCLDY    63  39  41 SE10      30.13R
RIFLE, CO      CLEAR     54  41  61 CALM      30.21R
MONTROSE, CO   CLEAR     55  38  52 SE10      30.22S
CORTEZ, CO     CLOUDY    45  35  68 E3        30.22R
COLORADO CITY    N/A     54  45  71 SE5       30.17S
PAGE, AZ       CLEAR     70  37  29 CALM      30.08R
GRAND CANYON   PTCLDY    47  38  71 CALM      30.28R
KINGMAN, AZ    CLEAR     68  38  33 S3        30.05R
FLAGSTAFF, AZ  CLEAR     45  39  79 CALM      30.31R

$$

REGIONAL REPORTS    NEVADA/IDAHO/WYOMING

CITY           SKY/WX    TMP DP  RH WIND       PRES   REMARKS
LAS VEGAS, NV  CLEAR     80  41  24 S3        29.94R
ELY, NY        CLEAR     47  40  76 S12       30.24R
ELKO, NV       CLEAR     52  37  56 CALM      30.16R
POCATELLO, ID  CLEAR     53  36  52 CALM      30.09R
BURLEY, ID     CLEAR     53  42  66 SW10      30.07R
FORT BRIDGER,    N/A     60  32  34 W10       30.28S
EVANSTON, WY   CLOUDY    53  36  52 S7        30.26S
ROCK SPRINGS,  PTCLDY    55  38  52 S8        30.23R
KEMMERER, WY     N/A     46  37  71 N7        30.26S

$$




USA.gov is the U.S. government's official web portal to all federal, state and local government web resources and services.